TimeMST,TemperatureF,Dew PointF,Humidity,Sea Level PressureIn,VisibilityMPH,Wind Direction,Wind SpeedMPH,Gust SpeedMPH,PrecipitationIn,Events,Conditions,WindDirDegrees,DateUTC
12:15 AM,19.4,15.8,86,29.92,10.0,Calm,Calm,-,N/A,,Clear,0,2012-12-14 07:15:00
12:35 AM,17.6,15.8,93,29.90,10.0,ESE,3.5,-,N/A,,Clear,120,2012-12-14 07:35:00
12:55 AM,19.4,15.8,86,29.90,10.0,Calm,Calm,-,N/A,,Clear,0,2012-12-14 07:55:00
1:15 AM,17.6,15.8,93,29.90,10.0,East,4.6,-,N/A,,Clear,80,2012-12-14 08:15:00
1:35 AM,17.6,15.8,93,29.90,10.0,ESE,6.9,-,N/A,,Clear,120,2012-12-14 08:35:00
1:55 AM,17.6,15.8,93,29.90,10.0,Calm,Calm,-,N/A,,Clear,0,2012-12-14 08:55:00
2:15 AM,17.6,15.8,93,29.90,10.0,East,3.5,-,N/A,,Clear,90,2012-12-14 09:15:00
2:55 AM,17.6,15.8,93,29.89,10.0,Calm,Calm,-,N/A,,Clear,0,2012-12-14 09:55:00
3:15 AM,17.6,15.8,93,29.88,10.0,Calm,Calm,-,N/A,,Clear,0,2012-12-14 10:15:00
4:15 AM,17.6,15.8,93,29.86,10.0,Calm,Calm,-,N/A,,Clear,0,2012-12-14 11:15:00
4:35 AM,17.6,15.8,93,29.86,10.0,Calm,Calm,-,N/A,,Clear,0,2012-12-14 11:35:00
4:55 AM,17.6,15.8,93,29.84,10.0,East,5.8,-,N/A,,Clear,90,2012-12-14 11:55:00
5:15 AM,17.6,15.8,93,29.83,10.0,East,5.8,-,N/A,,Clear,90,2012-12-14 12:15:00
5:35 AM,17.6,15.8,93,29.82,10.0,East,5.8,-,N/A,,Clear,90,2012-12-14 12:35:00
5:55 AM,17.6,15.8,93,29.81,10.0,Calm,Calm,-,N/A,,Clear,0,2012-12-14 12:55:00
6:15 AM,19.4,15.8,86,29.80,10.0,Calm,Calm,-,N/A,,Clear,0,2012-12-14 13:15:00
6:35 AM,19.4,15.8,86,29.79,10.0,Calm,Calm,-,N/A,,Partly Cloudy,0,2012-12-14 13:35:00
6:50 AM,19.4,15.8,86,29.79,10.0,Calm,Calm,-,N/A,,Overcast,0,2012-12-14 13:50:00
7:50 AM,19.4,17.6,93,29.75,10.0,Calm,Calm,-,N/A,,Overcast,0,2012-12-14 14:50:00
8:50 AM,19.4,17.6,93,29.73,10.0,Calm,Calm,-,N/A,,Overcast,0,2012-12-14 15:50:00
9:50 AM,21.2,17.6,86,29.72,10.0,Calm,Calm,-,N/A,,Overcast,0,2012-12-14 16:50:00
10:50 AM,24.8,19.4,80,29.66,10.0,Calm,Calm,-,N/A,,Overcast,0,2012-12-14 17:50:00
11:50 AM,26.6,19.4,74,29.62,10.0,Calm,Calm,-,N/A,,Overcast,0,2012-12-14 18:50:00
12:50 PM,28.4,19.4,69,29.57,10.0,Calm,Calm,-,N/A,,Mostly Cloudy,0,2012-12-14 19:50:00
1:50 PM,32.0,17.6,55,29.54,10.0,Calm,Calm,-,N/A,,Mostly Cloudy,0,2012-12-14 20:50:00
2:50 PM,33.8,17.6,52,29.53,10.0,Calm,Calm,-,N/A,,Mostly Cloudy,0,2012-12-14 21:50:00
3:50 PM,33.8,19.4,56,29.55,10.0,ENE,4.6,-,N/A,,Overcast,70,2012-12-14 22:50:00
4:50 PM,35.6,19.4,52,29.58,7.0,NNW,3.5,-,N/A,,Overcast,340,2012-12-14 23:50:00
5:50 PM,32.0,24.8,75,29.61,7.0,Calm,Calm,-,N/A,,Overcast,0,2012-12-15 00:50:00
6:50 PM,30.2,28.4,93,29.64,5.0,Variable,5.8,-,N/A,Snow,Light Snow,0,2012-12-15 01:50:00
8:50 PM,30.2,28.4,93,29.70,4.0,NE,4.6,-,N/A,Snow,Light Snow,50,2012-12-15 03:50:00
11:15 PM,33.8,30.2,87,29.75,10.0,SW,6.9,-,N/A,,Partly Cloudy,220,2012-12-15 06:15:00
11:35 PM,32.0,28.4,87,29.75,10.0,SW,4.6,-,N/A,,Scattered Clouds,220,2012-12-15 06:35:00
11:55 PM,32.0,28.4,87,29.75,10.0,ESE,4.6,-,N/A,,Scattered Clouds,120,2012-12-15 06:55:00